Tracking 20942 objects as of 14-Jul-2020
HD Live streaming from Space Station
objects crossing your sky now

COSMOS 2256

Track COSMOS 2256 now!
10-day predictions
COSMOS 2256 is classified as:


NORAD ID: 22691
Int'l Code: 1993-038E
Perigee: 1,409.5 km
Apogee: 1,418.7 km
Inclination: 82.6 °
Period: 113.9 minutes
Semi major axis: 7785 km
RCS: 1.14 m2 (large)
Launch date: June 24, 1993
Source: Commonwealth of Independent States (former USSR) (CIS)
Launch site: PLESETSK MISSILE AND SPACE COMPLEX (PKMTR)
aabbcc
Your satellite tracking list
Your tracking list is empty




NASA's NSSDC Master Catalog

Two Line Element Set (TLE):
1 22691U 93038E   20195.64495698 +.00000031 +00000-0 +11349-3 0  9996
2 22691 082.5753 157.4877 0005917 221.6640 311.8891 12.63878133248461
Source of the keplerian elements: AFSPC